Time,TemperatureF,DewpointF,PressureIn,WindDirection,WindDirectionDegrees,WindSpeedMPH,WindSpeedGustMPH,Humidity,HourlyPrecipIn,Conditions,Clouds,dailyrainin,SoftwareType,DateUTC
2013-08-05 00:00:00,64.4,63.5,29.89,SSW,202,0.0,-999.0,97,-99.99,,,0.00,Acu-Link.com,2013-08-05 04:00:00,
2013-08-05 00:15:00,64.0,63.4,29.90,SSW,202,0.0,-999.0,98,-99.99,,,0.00,Acu-Link.com,2013-08-05 04:15:00,
2013-08-05 00:30:00,63.9,63.6,29.89,SSW,202,0.0,-999.0,99,-99.99,,,0.00,Acu-Link.com,2013-08-05 04:30:00,
2013-08-05 00:46:00,63.5,62.9,29.90,SSW,202,0.0,-999.0,98,-99.99,,,0.00,Acu-Link.com,2013-08-05 04:46:00,
2013-08-05 01:01:00,63.3,63.0,29.90,SSW,202,0.0,-999.0,99,-99.99,,,0.00,Acu-Link.com,2013-08-05 05:01:00,
2013-08-05 01:16:00,63.3,63.0,29.89,SSW,202,0.0,-999.0,99,-99.99,,,0.00,Acu-Link.com,2013-08-05 05:16:00,
2013-08-05 01:31:00,63.1,62.8,29.90,SSW,202,0.0,-999.0,99,-99.99,,,0.00,Acu-Link.com,2013-08-05 05:31:00,
2013-08-05 01:46:00,62.8,62.5,29.90,SSW,202,0.0,-999.0,99,-99.99,,,0.00,Acu-Link.com,2013-08-05 05:46:00,
2013-08-05 02:02:00,62.6,62.3,29.89,SSW,202,0.0,-999.0,99,-99.99,,,0.00,Acu-Link.com,2013-08-05 06:02:00,
2013-08-05 02:17:00,62.2,61.9,29.89,SSW,202,0.0,-999.0,99,-99.99,,,0.00,Acu-Link.com,2013-08-05 06:17:00,
2013-08-05 02:32:00,61.9,61.6,29.89,SSW,202,0.0,-999.0,99,-99.99,,,0.00,Acu-Link.com,2013-08-05 06:32:00,
2013-08-05 02:47:00,61.7,61.4,29.89,SSW,202,0.0,-999.0,99,-99.99,,,0.00,Acu-Link.com,2013-08-05 06:47:00,
2013-08-05 03:02:00,61.5,61.2,29.89,SSW,202,0.0,-999.0,99,-99.99,,,0.00,Acu-Link.com,2013-08-05 07:02:00,
2013-08-05 03:18:00,61.3,61.0,29.89,SSW,202,0.0,-999.0,99,-99.99,,,0.00,Acu-Link.com,2013-08-05 07:18:00,
2013-08-05 03:33:00,61.2,60.9,29.89,SSW,202,0.0,-999.0,99,-99.99,,,0.00,Acu-Link.com,2013-08-05 07:33:00,
2013-08-05 03:48:00,61.0,60.7,29.89,SSW,202,0.0,-999.0,99,-99.99,,,0.00,Acu-Link.com,2013-08-05 07:48:00,
2013-08-05 04:03:00,61.2,60.9,29.89,SSW,202,0.0,-999.0,99,-99.99,,,0.00,Acu-Link.com,2013-08-05 08:03:00,
2013-08-05 04:18:00,61.3,61.0,29.90,SSW,202,0.0,-999.0,99,-99.99,,,0.00,Acu-Link.com,2013-08-05 08:18:00,
2013-08-05 04:33:00,61.7,61.4,29.89,SSW,202,0.0,-999.0,99,-99.99,,,0.00,Acu-Link.com,2013-08-05 08:33:00,
2013-08-05 04:49:00,62.2,61.9,29.89,North,0,0.0,-999.0,99,-99.99,,,0.00,Acu-Link.com,2013-08-05 08:49:00,
2013-08-05 05:04:00,62.2,61.9,29.89,North,0,0.0,-999.0,99,-99.99,,,0.00,Acu-Link.com,2013-08-05 09:04:00,
2013-08-05 05:19:00,61.9,61.6,29.89,North,0,0.0,-999.0,99,-99.99,,,0.00,Acu-Link.com,2013-08-05 09:19:00,
2013-08-05 05:34:00,61.3,61.0,29.89,North,0,0.0,-999.0,99,-99.99,,,0.00,Acu-Link.com,2013-08-05 09:34:00,
2013-08-05 06:05:00,60.6,60.3,29.90,North,0,0.0,-999.0,99,-99.99,,,0.00,Acu-Link.com,2013-08-05 10:05:00,
2013-08-05 06:35:00,60.3,60.0,29.91,North,0,0.0,-999.0,99,-99.99,,,0.00,Acu-Link.com,2013-08-05 10:35:00,
2013-08-05 07:05:00,60.8,60.5,29.92,North,0,0.0,-999.0,99,-99.99,,,0.00,Acu-Link.com,2013-08-05 11:05:00,
2013-08-05 07:21:00,60.8,60.5,29.92,North,0,0.0,-999.0,99,-99.99,,,0.00,Acu-Link.com,2013-08-05 11:21:00,
2013-08-05 07:36:00,62.2,61.9,29.93,North,0,0.0,-999.0,99,-99.99,,,0.00,Acu-Link.com,2013-08-05 11:36:00,
2013-08-05 08:22:00,66.4,65.8,29.95,North,0,0.0,-999.0,98,-99.99,,,0.00,Acu-Link.com,2013-08-05 12:22:00,
2013-08-05 08:37:00,67.5,66.6,29.94,North,0,0.0,-999.0,97,-99.99,,,0.00,Acu-Link.com,2013-08-05 12:37:00,
2013-08-05 09:22:00,72.0,65.1,29.94,North,0,0.0,-999.0,79,-99.99,,,0.00,Acu-Link.com,2013-08-05 13:22:00,
2013-08-05 09:38:00,72.5,64.1,29.95,ESE,112,1.1,-999.0,75,-99.99,,,0.00,Acu-Link.com,2013-08-05 13:38:00,
2013-08-05 09:52:00,73.2,64.8,29.95,North,0,2.2,-999.0,75,-99.99,,,0.00,Acu-Link.com,2013-08-05 13:52:00,
2013-08-05 10:08:00,73.8,64.2,29.95,South,180,3.7,-999.0,72,-99.99,,,0.00,Acu-Link.com,2013-08-05 14:08:00,
2013-08-05 10:23:00,74.8,63.9,29.95,South,180,1.1,-999.0,69,-99.99,,,0.00,Acu-Link.com,2013-08-05 14:23:00,
2013-08-05 10:38:00,75.9,64.1,29.95,SW,225,1.7,-999.0,67,-99.99,,,0.00,Acu-Link.com,2013-08-05 14:38:00,
2013-08-05 10:54:00,77.2,62.7,29.96,SW,225,2.2,-999.0,61,-99.99,,,0.00,Acu-Link.com,2013-08-05 14:54:00,
2013-08-05 11:09:00,78.8,62.8,29.96,SSE,157,0.0,-999.0,58,-99.99,,,0.00,Acu-Link.com,2013-08-05 15:09:00,
2013-08-05 11:24:00,79.0,60.9,29.96,ESE,112,0.0,-999.0,54,-99.99,,,0.00,Acu-Link.com,2013-08-05 15:24:00,
2013-08-05 11:39:00,80.1,60.3,29.97,SSE,157,2.7,-999.0,51,-99.99,,,0.00,Acu-Link.com,2013-08-05 15:39:00,
2013-08-05 11:54:00,81.0,61.1,29.96,SSE,157,1.1,-999.0,51,-99.99,,,0.00,Acu-Link.com,2013-08-05 15:54:00,
2013-08-05 12:25:00,81.3,60.9,29.95,South,180,1.1,-999.0,50,-99.99,,,0.00,Acu-Link.com,2013-08-05 16:25:00,
2013-08-05 12:40:00,82.4,63.5,29.95,WNW,292,2.2,-999.0,53,-99.99,,,0.00,Acu-Link.com,2013-08-05 16:40:00,
2013-08-05 13:11:00,81.9,61.4,29.94,WSW,247,0.0,-999.0,50,-99.99,,,0.00,Acu-Link.com,2013-08-05 17:11:00,
2013-08-05 13:26:00,82.2,63.9,29.94,SSE,157,1.7,-999.0,54,-99.99,,,0.00,Acu-Link.com,2013-08-05 17:26:00,
2013-08-05 13:41:00,81.7,61.8,29.94,SSW,202,1.7,-999.0,51,-99.99,,,0.00,Acu-Link.com,2013-08-05 17:41:00,
2013-08-05 14:11:00,80.2,62.0,29.93,SW,225,0.0,-999.0,54,-99.99,,,0.00,Acu-Link.com,2013-08-05 18:11:00,
2013-08-05 14:27:00,80.4,63.2,29.92,ESE,112,0.0,-999.0,56,-99.99,,,0.00,Acu-Link.com,2013-08-05 18:27:00,
2013-08-05 14:42:00,81.3,63.6,29.92,SSW,202,0.0,-999.0,55,-99.99,,,0.00,Acu-Link.com,2013-08-05 18:42:00,
2013-08-05 14:57:00,84.7,63.4,29.91,ENE,67,0.0,-999.0,49,-99.99,,,0.00,Acu-Link.com,2013-08-05 18:57:00,
2013-08-05 15:12:00,81.7,63.4,29.90,SSE,157,2.2,-999.0,54,-99.99,,,0.00,Acu-Link.com,2013-08-05 19:12:00,
2013-08-05 15:27:00,82.9,62.3,29.90,SSE,157,2.7,-999.0,50,-99.99,,,0.00,Acu-Link.com,2013-08-05 19:27:00,
2013-08-05 15:43:00,82.4,63.5,29.90,SSW,202,2.2,-999.0,53,-99.99,,,0.00,Acu-Link.com,2013-08-05 19:43:00,
2013-08-05 16:13:00,86.4,67.2,29.89,SW,225,0.0,-999.0,53,-99.99,,,0.00,Acu-Link.com,2013-08-05 20:13:00,
2013-08-05 16:28:00,83.7,64.7,29.89,South,180,2.7,-999.0,53,-99.99,,,0.00,Acu-Link.com,2013-08-05 20:28:00,
2013-08-05 16:43:00,86.0,64.0,29.89,SE,135,1.7,-999.0,48,-99.99,,,0.00,Acu-Link.com,2013-08-05 20:43:00,
2013-08-05 16:59:00,81.0,67.2,29.89,SSE,157,0.0,-999.0,63,-99.99,,,0.00,Acu-Link.com,2013-08-05 20:59:00,
2013-08-05 17:14:00,83.3,64.9,29.89,ESE,112,0.0,-999.0,54,-99.99,,,0.00,Acu-Link.com,2013-08-05 21:14:00,
2013-08-05 17:29:00,84.0,63.9,29.89,SSE,157,1.7,-999.0,51,-99.99,,,0.00,Acu-Link.com,2013-08-05 21:29:00,
2013-08-05 17:44:00,86.7,65.2,29.89,SE,135,0.0,-999.0,49,-99.99,,,0.00,Acu-Link.com,2013-08-05 21:44:00,
2013-08-05 17:59:00,85.6,66.5,29.88,SSE,157,0.0,-999.0,53,-99.99,,,0.00,Acu-Link.com,2013-08-05 21:59:00,
2013-08-05 18:15:00,88.3,67.3,29.88,SSW,202,1.1,-999.0,50,-99.99,,,0.00,Acu-Link.com,2013-08-05 22:15:00,
2013-08-05 18:30:00,86.5,67.3,29.88,SSE,157,0.0,-999.0,53,-99.99,,,0.00,Acu-Link.com,2013-08-05 22:30:00,
2013-08-05 19:00:00,82.6,68.2,29.88,SSE,157,0.0,-999.0,62,-99.99,,,0.00,Acu-Link.com,2013-08-05 23:00:00,
2013-08-05 19:16:00,81.0,69.8,29.88,SSE,157,0.0,-999.0,69,-99.99,,,0.00,Acu-Link.com,2013-08-05 23:16:00,
2013-08-05 19:46:00,78.3,69.7,29.88,SSE,157,0.0,-999.0,75,-99.99,,,0.00,Acu-Link.com,2013-08-05 23:46:00,
2013-08-05 20:16:00,76.3,70.4,29.89,SSW,202,0.0,-999.0,82,-99.99,,,0.00,Acu-Link.com,2013-08-06 00:16:00,
2013-08-05 20:32:00,75.6,69.7,29.89,SSW,202,0.0,-999.0,82,-99.99,,,0.00,Acu-Link.com,2013-08-06 00:32:00,
2013-08-05 21:02:00,74.5,69.3,29.90,SSW,202,0.0,-999.0,84,-99.99,,,0.00,Acu-Link.com,2013-08-06 01:02:00,
2013-08-05 21:17:00,73.9,69.8,29.89,SSW,202,0.0,-999.0,87,-99.99,,,0.00,Acu-Link.com,2013-08-06 01:17:00,
2013-08-05 21:32:00,73.6,69.1,29.89,South,180,0.0,-999.0,86,-99.99,,,0.00,Acu-Link.com,2013-08-06 01:32:00,
2013-08-05 21:48:00,73.2,68.1,29.90,NW,315,0.0,-999.0,84,-99.99,,,0.00,Acu-Link.com,2013-08-06 01:48:00,
2013-08-05 22:18:00,73.0,67.5,29.89,SSE,157,0.0,-999.0,83,-99.99,,,0.00,Acu-Link.com,2013-08-06 02:18:00,
2013-08-05 22:33:00,72.9,67.1,29.89,SSE,157,0.0,-999.0,82,-99.99,,,0.00,Acu-Link.com,2013-08-06 02:33:00,
2013-08-05 23:04:00,72.9,68.8,29.89,SSE,157,0.0,-999.0,87,-99.99,,,0.00,Acu-Link.com,2013-08-06 03:04:00,
2013-08-05 23:19:00,72.5,67.4,29.88,SSE,157,0.0,-999.0,84,-99.99,,,0.00,Acu-Link.com,2013-08-06 03:19:00,
2013-08-05 23:49:00,73.8,66.5,29.89,South,180,2.2,-999.0,78,-99.99,,,0.00,Acu-Link.com,2013-08-06 03:49:00,